• Join FlightAware (Why Join?)
  • Login
  • US Flag 
12:38AM EST


 

Airport Tracker/Info


-or-


 

Live Flight TrackerFlight Track Log ✈ SWA2141 ✈ 09-Aug-2013 ✈ KBWI - KMHT

Flight Track Log - Related Links

Times and Time Zones

All times are in EDT time to prevent confusion due to time zone crossing. See the SWA2141 flight status page for this flight to view local times or setup timezone preferences in your user account.

Time Position Orientation Groundspeed Altitude Reporting Facility
EDT Latitude Longitude Course Direction KTS MPH feet Rate Location/Type
11:27PM 39.1520 -76.7520 181° South 224 258 3,700  Level FlightAware
11:28PM 39.1320 -76.7400 155° Southeast 261 300 4,400 2,000 Climbing FlightAware
11:28PM 39.1220 -76.7270 135° Southeast 281 323 4,700 1,600 Climbing FlightAware
11:28PM 39.1190 -76.7220 128° Southeast 289 333 4,800 2,100 Climbing FlightAware
11:28PM 39.1130 -76.7030 112° Southeast 295 339 5,400 3,120 Climbing FlightAware
11:28PM 39.1120 -76.6800 93° East 305 351 6,100 2,400 Climbing FlightAware
11:29PM 39.1170 -76.6250 83° East 309 356 7,000 1,333 Climbing FlightAware
11:29PM 39.1200 -76.5960 82° East 314 361 7,100 1,200 Climbing FlightAware
11:30PM 39.1240 -76.5480 84° East 314 361 7,800 2,632 Climbing FlightAware
11:30PM 39.1290 -76.4880 84° East 315 362 9,600 2,545 Climbing FlightAware
11:31PM 39.1350 -76.4250 83° East 349 402 10,600 2,118 Climbing FlightAware
11:31PM 39.1410 -76.3490 84° East 371 427 12,000 2,522 Climbing FlightAware
11:32PM 39.1480 -76.2700 83° East 383 441 13,500 2,560 Climbing FlightAware
11:33PM 39.1570 -76.1790 83° East 395 455 15,200 2,500 Climbing FlightAware
11:33PM 39.1660 -76.1050 81° East 404 465 16,500 2,471 Climbing FlightAware
11:34PM 39.1760 -76.0160 82° East 413 475 18,000 2,384 Climbing FlightAware
11:34PM 39.1860 -75.9260 82° East 422 486 19,400 2,316 Climbing FlightAware
11:35PM 39.2010 -75.8770 68° East 425 489 20,200 2,100 Climbing FlightAware
11:35PM 39.2230 -75.8400 52° Northeast 426 490 20,800 1,920 Climbing FlightAware
11:35PM 39.2660 -75.7840 45° Northeast 435 501 21,800 1,870 Climbing FlightAware
11:36PM 39.3380 -75.7040 41° Northeast 442 509 23,200 1,807 Climbing FlightAware
11:37PM 39.3990 -75.6440 37° Northeast 448 516 24,300 1,853 Climbing FlightAware
11:37PM 39.4510 -75.5930 37° Northeast 452 520 25,300 1,739 Climbing FlightAware
11:38PM 39.5120 -75.5330 37° Northeast 456 525 26,300 1,541 Climbing FlightAware
11:39PM 39.5750 -75.4690 38° Northeast 466 536 27,200 1,304 Climbing FlightAware
11:39PM 39.6310 -75.4140 37° Northeast 473 544 27,800 1,235 Climbing FlightAware
11:40PM 39.6940 -75.3510 38° Northeast 480 552 28,600 1,233 Climbing FlightAware
11:40PM 39.7580 -75.2870 38° Northeast 486 559 29,300 1,147 Climbing FlightAware
11:41PM 39.8150 -75.2300 38° Northeast 493 567 29,900 1,130 Climbing FlightAware
11:42PM 39.8840 -75.1600 38° Northeast 501 577 30,600 1,029 Climbing FlightAware
11:42PM 39.9440 -75.1000 37° Northeast 508 585 31,100 1,059 Climbing FlightAware
11:43PM 40.0100 -75.0340 37° Northeast 511 588 31,800 1,417 Climbing FlightAware
11:43PM 40.0780 -74.9640 38° Northeast 507 583 32,800 1,583 Climbing FlightAware
11:44PM 40.1440 -74.8980 37° Northeast 502 578 33,700 1,412 Climbing FlightAware
11:44PM 40.2080 -74.8530 28° Northeast 488 562 34,400 1,235 Climbing FlightAware
11:45PM 40.2840 -74.8210 18° North 483 556 35,100 1,114 Climbing FlightAware
11:46PM 40.3560 -74.7920 17° North 483 556 35,700 1,114 Climbing FlightAware
11:46PM 40.4340 -74.7610 17° North 483 556 36,400 1,083 Climbing FlightAware
11:47PM 40.5110 -74.7310 16° North 481 554 37,000 500 Climbing FlightAware
11:47PM 40.5870 -74.7000 17° North 481 554 37,000  Level FlightAware
11:48PM 40.6660 -74.6690 17° North 482 555 37,000  Level FlightAware
11:48PM 40.7320 -74.6420 17° North 483 556 37,000  Level FlightAware
11:49PM 40.8140 -74.6090 17° North 483 556 37,000  Level FlightAware
11:50PM 40.8900 -74.5780 17° North 483 556 37,000  Level FlightAware
11:50PM 40.9590 -74.5500 17° North 482 555 37,000  Level FlightAware
11:51PM 41.0330 -74.5200 17° North 481 554 37,000  Level FlightAware
11:51PM 41.1120 -74.4880 17° North 480 552 37,000  Level FlightAware
11:52PM 41.1800 -74.4600 17° North 478 550 37,000  Level FlightAware
11:53PM 41.2600 -74.4270 17° North 478 550 37,000  Level FlightAware
11:53PM 41.3320 -74.3980 17° North 477 549 37,000  Level FlightAware
11:54PM 41.4010 -74.3690 17° North 477 549 37,000  Level FlightAware
11:54PM 41.4760 -74.3320 20° North 490 564 37,000  Level FlightAware
11:55PM 41.5480 -74.2710 32° Northeast 504 580 37,000 -417 Level FlightAware
11:56PM 41.6140 -74.2070 36° Northeast 509 586 36,500 -915 Descending FlightAware
11:56PM 41.6610 -74.1610 36° Northeast 512 589 36,100 -900 Descending FlightAware
11:57PM 41.7280 -74.0950 36° Northeast 513 590 35,600 -880 Descending FlightAware
11:57PM 41.8010 -74.0240 36° Northeast 512 589 35,000 -930 Descending FlightAware
11:58PM 41.8550 -73.9700 37° Northeast 515 593 34,500 -957 Descending FlightAware
11:58PM 41.9350 -73.8920 36° Northeast 518 596 33,900 -1,000 Descending FlightAware
11:59PM 42.0030 -73.8240 37° Northeast 521 600 33,300 -971 Descending FlightAware
11:59PM 42.0660 -73.7620 36° Northeast 522 601 32,800 -1,235 Descending FlightAware
12:00AM 42.1330 -73.6880 39° Northeast 527 606 31,900 -1,808 Descending FlightAware
12:01AM 42.1910 -73.5890 52° Northeast 532 612 30,600 -2,229 Descending FlightAware
12:01AM 42.2330 -73.5000 57° Northeast 535 616 29,300 -2,636 Descending FlightAware
12:02AM 42.2780 -73.4050 57° Northeast 540 621 27,700 -2,351 Descending FlightAware
12:02AM 42.3310 -73.2920 58° Northeast 526 605 26,400 -975 Descending FlightAware
12:03AM 42.3760 -73.1980 57° Northeast 526 605 26,400  Level FlightAware
12:04AM 42.4180 -73.1110 57° Northeast 526 605 26,400 -3,962 Level FlightAware
12:04AM 42.3730 -73.2040 237° Southwest 847 975 22,900 -4,732 Descending FlightAware
12:05AM 42.5080 -72.9140 58° Northeast 469 540 20,800 -2,413 Descending FlightAware
12:06AM 42.5540 -72.8150 58° Northeast 457 526 19,200 -1,479 Descending FlightAware
12:06AM 42.5940 -72.7290 58° Northeast 455 524 19,000 -469 Descending FlightAware
12:07AM 42.5730 -72.7740 238° Southwest 453 521 18,700 -1,594 Descending FlightAware
12:07AM 42.6620 -72.5800 58° Northeast 441 507 17,300 -2,500 Descending FlightAware
12:08AM 42.7030 -72.4900 58° Northeast 433 498 15,700 -2,455 Descending FlightAware
12:08AM 42.7330 -72.4250 58° Northeast 427 491 14,600 -2,270 Descending FlightAware
12:09AM 42.7750 -72.3330 58° Northeast 418 481 12,900 -1,519 Descending FlightAware
12:10AM 42.8000 -72.2620 64° Northeast 416 479 12,600 -2,348 Descending FlightAware
12:10AM 42.8000 -72.2110 90° East 407 468 11,100 -2,667 Descending FlightAware
12:10AM 42.8070 -72.1280 83° East 377 434 10,600 -649 Descending FlightAware
12:11AM 42.8130 -72.0480 84° East 345 397 10,300 -667 Descending FlightAware
12:11AM 42.8200 -72.0180 72° East 339 390 10,000 -1,371 Descending FlightAware
12:12AM 42.8350 -71.9720 66° East 325 374 9,500 -1,463 Descending FlightAware
12:12AM 42.8490 -71.9330 64° Northeast 318 366 9,000 -1,500 Descending FlightAware
12:12AM 42.8610 -71.8990 64° Northeast 315 362 8,500 -1,610 Descending FlightAware
12:13AM 42.8730 -71.8620 66° East 310 357 7,900 -1,650 Descending FlightAware
12:13AM 42.8850 -71.8270 65° Northeast 307 353 7,400 -1,091 Descending FlightAware
12:13AM 42.9010 -71.7820 64° Northeast 282 325 7,100 -533 Descending FlightAware
12:14AM 42.9110 -71.7530 65° Northeast 268 308 7,000 -150 Descending FlightAware
12:14AM 42.9210 -71.7240 65° Northeast 238 274 7,000 -800 Level FlightAware
12:14AM 42.9320 -71.6900 66° East 223 257 6,400 -1,371 Descending FlightAware
12:15AM 42.9360 -71.6780 66° East 218 251 6,200 -1,200 Descending FlightAware
12:15AM 42.9470 -71.6560 56° Northeast 208 239 5,800 -1,200 Descending FlightAware
12:15AM 42.9590 -71.6290 59° Northeast 192 221 5,300 -1,200 Descending FlightAware
12:16AM 42.9690 -71.6080 57° Northeast 189 217 4,900 -1,350 Descending FlightAware
12:16AM 42.9780 -71.5880 58° Northeast 191 220 4,400 -1,500 Descending FlightAware
12:16AM 42.9870 -71.5680 58° Northeast 188 216 3,900 -1,543 Descending FlightAware
12:17AM 42.9940 -71.5530 57° Northeast 179 206 3,500 -1,543 Descending FlightAware
12:17AM 43.0020 -71.5320 62° Northeast 175 201 3,000 -1,440 Descending FlightAware
12:17AM 43.0040 -71.5280 56° Northeast 172 198 2,900 -1,125 Descending FlightAware
12:17AM 43.0060 -71.5170 76° East 179 206 2,700 -1,543 Descending FlightAware
12:18AM 43.0060 -71.4880 90° East 178 205 2,000 -1,588 Descending FlightAware
12:18AM 43.0030 -71.4790 115° Southeast 174 200 1,800 -1,200 Descending FlightAware
12:18AM 42.9960 -71.4720 144° Southeast 165 190 1,600 -800 Descending FlightAware
12:18AM 42.9930 -71.4700 154° Southeast 164 189 1,600 -600 Level FlightAware
12:18AM 42.9830 -71.4640 156° South 156 180 1,400 -1,029 Descending FlightAware
12:19AM 42.9690 -71.4560 157° South 159 183 1,000 -526 Descending FlightAware
12:19AM 42.9470 -71.4430 157° South 157 181 900 -514 Descending FlightAware
12:20AM 42.9378 -71.4192 157° South 125 144 400 19,213 Descending Boston Center
12:21AM 42.9103 -71.3828 136° Southeast 125 144 31,000 15,300 Climbing Boston Center
12:22AM 42.8850 -71.3492 136° Southeast 125 144 31,000  Level Boston Center
12:23AM 42.8575 -71.3128 136° Southeast 125 144 31,000  Level Boston Center
12:24AM 42.8428 -71.2933 136° Southeast 125 144 31,000  Level Boston Center
12:27AM 42.9167 -71.4333 316° Northwest  Level FlightAware Approximate
12:34AM 42.9328 -71.4358 316° Northwest  Level Estimated
12:35AM 42.9328 -71.4358 316° Northwest  Level Estimated
12:36AM 42.9328 -71.4358 316° Northwest  Level Estimated
12:37AM 42.9328 -71.4358 316° Northwest  Level Estimated
12:38AM 42.9328 -71.4358 316° Northwest  Level Estimated
12:39AM 42.9328 -71.4358 316° Northwest  Level Estimated